Location: Unspecified
(0.0000°N, 0.0000°E)
Time: 00:53:28
(UTC+00:00)

COSMOS 2452 - Pass Details

Date: 18 May 2026
Orbit: 1481 x 1507 km, 82.5° (Epoch: 10 June)

Event Time Altitude Azimuth Distance (km) Brightness Sun altitude
Rises 02:47:39 0° 353° (N) 4,597 ? -43.8°
Reaches altitude 10° 02:50:31 10° 352° (N) 3,617 ? -43.1°
Enters shadow 02:53:46 27° 349° (N) 2,557 ? -42.4°
